Location: B
(0.0000°N, 0.0000°E)
Time: 05:08:46
(UTC+01:00)

Daily predictions for brighter satellites

Satellite Brightness Start Highest point End
(mag) Time Altitude Azimuth Time Altitude Azimuth Time Altitude Azimuth
COSMOS 2455 3.9 04:16:12 39° SSE 04:16:12 39° SSE 04:19:49 10° SSE
Ariane 42L Rocket 4.2 04:15:26 49° SSE 04:15:34 49° SSE 04:32:15 10° E
Okean O Rocket 3.8 04:20:23 22° SE 04:20:23 22° SE 04:22:23 10° SSE
CENTAUR R/B 4.2 04:23:35 29° SSW 04:23:35 29° SSW 04:28:05 10° S
Cosmos 1844 Rocket 4.3 04:28:50 24° S 04:28:50 24° S 04:31:05 10° S
ARIANE 5 R/B 3.5 04:35:24 80° NNE 04:35:24 80° NNE 04:55:39 10° E
BLOCK DM-SL R/B 4.0 04:40:54 30° E 04:40:54 30° E 04:44:44 10° E
H-2A R/B (2) 3.4 04:46:31 24° SSW 04:46:31 24° SSW 04:48:17 10° SSE
Ariane H10+ 4.0 04:47:56 57° WNW 04:49:43 75° N 05:10:12 10° E
Mugunghwa Rocket 4.2 04:50:20 58° NW 04:51:59 82° NNE 04:59:00 10° ESE
Ariane V96 H10-3 4.1 04:51:27 60° NW 04:52:12 66° N 05:13:53 10° E
Meteosat 1 Rocket2 4.0 04:54:29 35° E 04:54:29 35° E 04:56:49 10° ENE
NATO 3D Rocket 4.4 04:51:01 52° W 04:53:10 74° SSW 04:59:34 10° ESE
ARIANE 42L R/B 3.2 04:54:04 44° SSE 04:54:04 44° SSE 04:58:22 10° E
Cosmos 2100 Rocket 3.9 04:52:45 53° NNW 04:54:20 79° W 05:00:38 10° S
Ariane 3 Deb 3.7 04:55:36 29° S 04:55:36 29° S 04:57:31 10° SE
Ariane H10 3.7 04:56:10 40° NNE 04:56:10 40° NNE 04:58:47 10° ENE
CZ-4B R/B 3.1 04:58:08 12° N 05:03:19 79° WNW 05:08:50 10° SSW
Cosmos 2123 Rocket 4.2 04:58:15 10° SSW 05:03:52 47° W 05:03:52 47° W
Lacrosse 4 Rocket 2.3 05:00:14 10° S 05:04:36 53° ESE 05:08:53 10° NNE
USA 215 4.2 05:01:57 10° NE 05:08:09 48° SE 05:14:23 10° SSW
Cosmos 2278 Rocket 2.1 05:07:20 50° NW 05:08:47 72° WSW 05:14:24 10° S
Meteor PRIRODA 4.2 05:13:33 44° SSW 05:13:33 44° SSW 05:16:07 10° SSW
Cosmos 1802 Rocket 3.9 05:09:17 26° NNW 05:12:59 71° W 05:19:21 10° S
Cosmos 1340 2.7 05:19:50 57° WSW 05:19:50 57° WSW 05:23:22 10° S
Meteor 2-10 Rocket 3.8 05:18:56 34° NW 05:21:03 52° W 05:26:32 10° S
Cosmos 1943 3.3 05:16:12 10° SSW 05:21:40 49° WNW 05:27:07 10° N
Cosmos 1447 Rocket 4.5 05:18:50 10° SSW 05:25:08 66° W 05:31:23 10° N
CZ-4B R/B 3.6 05:25:18 48° NW 05:25:58 56° WNW 05:29:34 10° SSW
Palapa 6 Rocket 4.3 05:22:13 30° W 05:26:01 63° SSW 05:32:24 10° SE
Meteor 1-31 Rocket 2.9 05:27:16 39° NNW 05:28:17 49° WNW 05:32:07 10° SSW
Cosmos 1725 Rocket 4.0 05:22:53 10° N 05:29:03 87° E 05:35:16 10° S
Cosmos 1933 3.4 05:27:56 39° NW 05:29:08 56° W 05:33:08 10° S
XTE 3.4 05:32:13 37° SSW 05:32:56 51° SSE 05:35:36 10° ENE
FUSE 3.9 05:30:40 17° WSW 05:34:50 86° SSE 05:40:12 10° ENE
ARIANE 5 DEB (SYLDA) 4.2 05:34:19 28° WNW 05:37:09 59° N 05:46:27 10° ENE
Feng Yun 1-1 Rocket 4.5 05:31:55 10° NNE 05:37:46 79° ESE 05:43:30 10° S
BLOCK DM-SL R/B 3.3 05:35:30 23° W 05:39:04 80° N 05:44:32 10° E
Ariane H10 3.7 05:37:25 28° W 05:39:19 88° SSW 05:53:27 10° E
Okean-O 3.0 05:35:44 10° NNE 05:40:07 69° ESE 05:44:32 10° S
Cosmos 1486 Rocket 4.2 05:38:39 18° NNW 05:42:28 52° WSW 05:47:38 10° S
Cosmos 1825 2.7 05:43:28 10° SSW 05:46:57 36° W 05:50:25 10° NNW
ATLAS 5 CENTAUR R/B 4.2 05:22:33 21° WNW 05:47:16 53° N 05:54:24 10° E
Cosmos 2016 Rocket 4.4 05:42:47 13° NNW 05:47:44 37° W 05:53:21 10° SSW
Ariane H10-3 1.9 05:51:20 17° WNW 05:55:15 50° N 05:58:13 10° ENE
ISS -3.7 05:55:16 19° NW 05:57:20 54° SW 06:00:32 10° SSE
USA 234 3.3 05:52:44 10° SSE 05:59:13 67° SW 06:05:43 10° NW
ASTRO E2 4.1 05:55:59 11° NNW 05:59:20 30° NNE 06:02:52 10° E
Cosmos 1354 Rocket 4.0 05:56:22 10° NNW 06:01:35 76° WSW 06:06:50 10° S
IDEFIX/ARIANE 42P 2.7 05:57:19 10° NNE 06:02:30 84° E 06:07:43 10° S
Cosmos 1862 Rocket 4.2 05:59:22 10° NNW 06:03:23 35° W 06:07:23 10° SSW
Cosmos 1408 4.2 06:02:27 10° SW 06:04:49 16° W 06:06:54 11° NW
Cosmos 1862 3.3 06:02:26 10° SSW 06:06:21 58° W 06:10:13 10° N
Okean 1-7 4.4 06:04:50 10° NNE 06:08:54 42° E 06:12:57 10° SSE
CZ-2C R/B 2.8 06:04:52 10° NNE 06:09:48 70° ESE 06:14:34 10° S
Cosmos 1733 Rocket 3.7 06:07:52 10° S 06:12:07 59° E 06:16:21 10° NNE
Cosmos 2208 Rocket 4.1 06:07:20 10° S 06:12:39 83° ESE 06:17:52 10° NNE
NOSS 3-3 (A) 3.9 06:10:23 10° SW 06:16:11 55° WNW 06:22:01 10° N
NOSS 3-3 (C) 3.9 06:10:30 10° SW 06:16:18 56° WNW 06:22:08 10° N
Tsikada Rocket 4.4 06:11:24 10° S 06:17:45 73° E 06:23:59 10° N
Cosmos 1570 Rocket 4.1 06:18:16 10° SSW 06:23:29 62° WNW 06:28:42 10° N
USA 229 DEB 4.0 06:16:39 10° NNW 06:24:01 84° ENE 06:31:25 10° SSE
USA 229 4.1 06:16:45 10° NNW 06:24:07 83° ENE 06:31:31 10° SSE
CZ-2C R/B 3.7 06:20:01 10° S 06:24:37 77° W 06:29:05 10° NNW
Ariane H10 3.7 06:08:35 10° W 06:30:39 68° S 06:34:41 10° ESE
Ariane H10 3.5 06:21:01 10° W 06:32:23 51° S 06:35:43 10° ESE
ARIANE 44LP R/B 4.2 06:45:20 10° W 07:11:05 78° N 07:15:07 10° ENE
